EZY19CT EGKK-LPFR

Flight info

Callsign EZY19CT
Flight time 2h 32m
Altitude 35000
Route IMVUR N63 SAM M195 LORKU DCT POZOF DCT BALDA DCT ABUPI DCT ORVED DCT UPULO DCT ALAGU
Aircraft A319/M-SDE3FGHIRWY/LB1

Departure

Time 2026-05-06 19:06
Airport London Gatwick Airport (EGKK)

Arrival

Time 2026-05-06 21:38
Airport Faro - Gago Coutinho International Airport (LPFR)
Time Latitude Longitude Altitude Speed Heading
2026-05-06 18:20 51.15766 -0.17889 211 ft 0 kts 347°
2026-05-06 18:21 51.15767 -0.17889 211 ft 0 kts 347°
2026-05-06 18:26 51.15768 -0.17889 211 ft 0 kts 347°
2026-05-06 18:32 51.15769 -0.17889 211 ft 0 kts 347°
2026-05-06 18:34 51.15769 -0.17890 211 ft 0 kts 347°
2026-05-06 18:38 51.15770 -0.17890 211 ft 0 kts 347°
2026-05-06 18:47 51.15768 -0.17889 211 ft 1 kts 347°
2026-05-06 18:47 51.15752 -0.17883 211 ft 3 kts 340°
2026-05-06 18:48 51.15733 -0.17870 211 ft 3 kts 328°
2026-05-06 18:48 51.15717 -0.17851 211 ft 3 kts 307°
2026-05-06 18:48 51.15709 -0.17826 211 ft 2 kts 268°
2026-05-06 18:48 51.15709 -0.17816 211 ft 0 kts 258°
2026-05-06 18:51 51.15704 -0.17847 211 ft 10 kts 258°
2026-05-06 18:51 51.15684 -0.17998 211 ft 14 kts 258°
2026-05-06 18:51 51.15664 -0.18148 211 ft 14 kts 258°
2026-05-06 18:51 51.15641 -0.18287 211 ft 13 kts 255°
2026-05-06 18:52 51.15578 -0.18350 211 ft 12 kts 170°
2026-05-06 18:52 51.15497 -0.18324 211 ft 12 kts 167°
2026-05-06 18:52 51.15421 -0.18296 211 ft 11 kts 167°
2026-05-06 18:52 51.15338 -0.18267 211 ft 16 kts 167°
2026-05-06 18:53 51.15219 -0.18226 211 ft 16 kts 178°
2026-05-06 18:53 51.15170 -0.18363 211 ft 15 kts 258°
2026-05-06 18:53 51.15149 -0.18525 211 ft 15 kts 258°
2026-05-06 18:53 51.15128 -0.18680 211 ft 14 kts 258°
2026-05-06 18:54 51.15108 -0.18832 211 ft 14 kts 258°
2026-05-06 18:54 51.15085 -0.18995 211 ft 16 kts 258°
2026-05-06 18:54 51.15061 -0.19171 211 ft 17 kts 258°
2026-05-06 18:54 51.15029 -0.19410 211 ft 28 kts 258°
2026-05-06 18:55 51.14989 -0.19710 211 ft 27 kts 258°
2026-05-06 18:55 51.14949 -0.20004 211 ft 27 kts 258°
2026-05-06 18:55 51.14910 -0.20288 211 ft 24 kts 256°
2026-05-06 18:55 51.14872 -0.20544 211 ft 23 kts 257°
2026-05-06 18:56 51.14842 -0.20757 211 ft 19 kts 258°
2026-05-06 18:56 51.14816 -0.20958 211 ft 18 kts 258°
2026-05-06 18:56 51.14798 -0.21079 211 ft 8 kts 256°
2026-05-06 18:56 51.14783 -0.21158 211 ft 7 kts 251°
2026-05-06 18:57 51.14770 -0.21229 211 ft 6 kts 254°
2026-05-06 18:57 51.14759 -0.21292 211 ft 6 kts 255°
2026-05-06 18:57 51.14749 -0.21349 211 ft 5 kts 255°
2026-05-06 18:57 51.14744 -0.21376 211 ft 2 kts 249°
2026-05-06 18:58 51.14739 -0.21391 211 ft 1 kts 233°
2026-05-06 18:58 51.14735 -0.21396 211 ft 1 kts 220°
2026-05-06 18:58 51.14733 -0.21400 211 ft 1 kts 216°
2026-05-06 18:58 51.14725 -0.21403 211 ft 1 kts 194°
2026-05-06 18:59 51.14722 -0.21404 211 ft 0 kts 191°
2026-05-06 18:59 51.14703 -0.21404 211 ft 4 kts 174°
2026-05-06 19:00 51.14685 -0.21396 211 ft 4 kts 151°
2026-05-06 19:00 51.14673 -0.21363 211 ft 3 kts 95°
2026-05-06 19:00 51.14680 -0.21317 211 ft 9 kts 72°
2026-05-06 19:00 51.14699 -0.21198 211 ft 11 kts 77°
2026-05-06 19:01 51.14713 -0.21078 211 ft 11 kts 82°
2026-05-06 19:01 51.14692 -0.20992 211 ft 5 kts 157°
2026-05-06 19:01 51.14689 -0.20990 211 ft 0 kts 163°
2026-05-06 19:01 51.14688 -0.20990 211 ft 0 kts 163°
2026-05-06 19:02 51.14679 -0.20985 210 ft 4 kts 164°
2026-05-06 19:02 51.14656 -0.20975 211 ft 1 kts 165°
2026-05-06 19:03 51.14654 -0.20975 211 ft 0 kts 165°
2026-05-06 19:04 51.14652 -0.20974 211 ft 0 kts 165°
2026-05-06 19:04 51.14642 -0.20970 211 ft 7 kts 165°
2026-05-06 19:05 51.14589 -0.20924 211 ft 9 kts 127°
2026-05-06 19:05 51.14567 -0.20772 211 ft 33 kts 76°
2026-05-06 19:05 51.14668 -0.20039 211 ft 103 kts 78°
2026-05-06 19:05 51.14865 -0.18610 322 ft 150 kts 77°
2026-05-06 19:06 51.15095 -0.16934 939 ft 157 kts 77°
2026-05-06 19:06 51.15325 -0.15236 1785 ft 154 kts 77°
2026-05-06 19:06 51.15568 -0.13458 2261 ft 175 kts 77°
2026-05-06 19:06 51.15834 -0.11496 2745 ft 193 kts 77°
2026-05-06 19:07 51.16134 -0.09267 2928 ft 214 kts 76°
2026-05-06 19:07 51.16682 -0.07052 2974 ft 219 kts 53°
2026-05-06 19:07 51.17863 -0.05626 2993 ft 220 kts 20°
2026-05-06 19:07 51.19410 -0.05497 3009 ft 223 kts 354°
2026-05-06 19:08 51.20919 -0.06059 3022 ft 225 kts 338°
2026-05-06 19:08 51.22118 -0.07657 3647 ft 231 kts 306°
2026-05-06 19:08 51.22650 -0.10179 3924 ft 254 kts 274°
2026-05-06 19:08 51.22462 -0.13039 4016 ft 263 kts 261°
2026-05-06 19:09 51.22114 -0.15940 4750 ft 267 kts 260°
2026-05-06 19:09 51.21760 -0.18871 5705 ft 270 kts 261°
2026-05-06 19:09 51.21409 -0.21819 6660 ft 272 kts 261°
2026-05-06 19:09 51.21059 -0.24804 7570 ft 275 kts 261°
2026-05-06 19:10 51.20709 -0.27812 8449 ft 278 kts 261°
2026-05-06 19:10 51.20355 -0.30854 9297 ft 281 kts 261°
2026-05-06 19:10 51.19997 -0.33889 10117 ft 283 kts 260°
2026-05-06 19:10 51.19599 -0.36980 10933 ft 285 kts 259°
2026-05-06 19:11 51.19192 -0.40094 11723 ft 287 kts 259°
2026-05-06 19:11 51.18783 -0.43226 12489 ft 289 kts 259°
2026-05-06 19:11 51.18372 -0.46380 13219 ft 292 kts 259°
2026-05-06 19:11 51.17958 -0.49549 13944 ft 292 kts 259°
2026-05-06 19:12 51.17528 -0.52710 14669 ft 292 kts 256°
2026-05-06 19:12 51.16831 -0.55745 15397 ft 292 kts 249°
2026-05-06 19:12 51.16039 -0.58708 16121 ft 289 kts 248°
2026-05-06 19:12 51.15251 -0.61641 16846 ft 286 kts 248°
2026-05-06 19:13 51.14474 -0.64536 17572 ft 281 kts 249°
2026-05-06 19:13 51.13716 -0.67365 18295 ft 274 kts 249°
2026-05-06 19:13 51.12989 -0.70086 19008 ft 265 kts 249°
2026-05-06 19:13 51.12282 -0.72723 19724 ft 253 kts 249°
2026-05-06 19:14 51.11608 -0.75241 20374 ft 243 kts 249°
2026-05-06 19:14 51.10942 -0.77732 20661 ft 245 kts 249°
2026-05-06 19:14 51.10273 -0.80234 20964 ft 246 kts 249°
2026-05-06 19:14 51.09599 -0.82750 21255 ft 247 kts 249°
2026-05-06 19:15 51.08923 -0.85266 21546 ft 248 kts 249°
2026-05-06 19:15 51.08227 -0.87784 21814 ft 250 kts 242°
2026-05-06 19:15 51.07068 -0.89852 21995 ft 253 kts 222°
2026-05-06 19:15 51.05681 -0.91594 22206 ft 256 kts 221°
2026-05-06 19:16 51.04291 -0.93379 22464 ft 257 kts 222°
2026-05-06 19:16 51.02906 -0.95188 22718 ft 258 kts 223°
2026-05-06 19:16 51.01528 -0.97011 22964 ft 259 kts 223°
2026-05-06 19:16 51.00146 -0.98848 23209 ft 259 kts 223°
2026-05-06 19:17 50.98763 -1.00693 23448 ft 260 kts 223°
2026-05-06 19:17 50.97377 -1.02548 23678 ft 261 kts 223°
2026-05-06 19:17 50.96005 -1.04384 23900 ft 262 kts 223°
2026-05-06 19:17 50.94610 -1.06252 24116 ft 263 kts 223°
2026-05-06 19:18 50.93214 -1.08122 24333 ft 263 kts 223°
2026-05-06 19:18 50.91808 -1.10002 24552 ft 264 kts 223°
2026-05-06 19:18 50.90409 -1.11871 24766 ft 264 kts 223°
2026-05-06 19:18 50.89001 -1.13752 24966 ft 265 kts 223°
2026-05-06 19:19 50.87592 -1.15633 25161 ft 266 kts 223°
2026-05-06 19:19 50.86175 -1.17522 25364 ft 266 kts 223°
2026-05-06 19:19 50.84764 -1.19402 25554 ft 266 kts 223°
2026-05-06 19:19 50.83342 -1.21294 25737 ft 267 kts 223°
2026-05-06 19:20 50.81917 -1.23189 25913 ft 267 kts 223°
2026-05-06 19:20 50.80492 -1.25083 26094 ft 268 kts 223°
2026-05-06 19:20 50.79065 -1.26976 26271 ft 268 kts 223°
2026-05-06 19:20 50.77635 -1.28874 26438 ft 269 kts 223°
2026-05-06 19:21 50.76202 -1.30773 26596 ft 269 kts 223°
2026-05-06 19:21 50.74781 -1.32655 26753 ft 270 kts 223°
2026-05-06 19:21 50.73325 -1.34580 26921 ft 270 kts 223°
2026-05-06 19:21 50.71887 -1.36481 27068 ft 270 kts 223°
2026-05-06 19:22 50.70462 -1.38363 27217 ft 271 kts 223°
2026-05-06 19:22 50.69013 -1.40276 27357 ft 271 kts 223°
2026-05-06 19:22 50.67560 -1.42192 27494 ft 272 kts 223°
2026-05-06 19:22 50.66112 -1.44097 27647 ft 272 kts 223°
2026-05-06 19:23 50.64660 -1.46008 27780 ft 272 kts 223°
2026-05-06 19:23 50.63204 -1.47923 27906 ft 273 kts 223°
2026-05-06 19:23 50.61744 -1.49841 28030 ft 273 kts 223°
2026-05-06 19:23 50.60281 -1.51762 28158 ft 273 kts 223°
2026-05-06 19:24 50.58817 -1.53681 28281 ft 274 kts 223°
2026-05-06 19:24 50.57351 -1.55601 28408 ft 274 kts 223°
2026-05-06 19:24 50.55883 -1.57522 28519 ft 274 kts 223°
2026-05-06 19:24 50.54435 -1.59416 28633 ft 275 kts 223°
2026-05-06 19:25 50.52963 -1.61341 28741 ft 275 kts 223°
2026-05-06 19:25 50.51494 -1.63259 28844 ft 275 kts 223°
2026-05-06 19:25 50.50016 -1.65187 28944 ft 276 kts 223°
2026-05-06 19:25 50.48541 -1.67108 29059 ft 276 kts 223°
2026-05-06 19:26 50.47061 -1.69035 29160 ft 276 kts 223°
2026-05-06 19:26 50.45583 -1.70959 29258 ft 276 kts 223°
2026-05-06 19:26 50.44102 -1.72884 29349 ft 277 kts 223°
2026-05-06 19:26 50.42615 -1.74814 29439 ft 277 kts 223°
2026-05-06 19:27 50.41127 -1.76746 29527 ft 277 kts 223°
2026-05-06 19:27 50.39642 -1.78671 29613 ft 278 kts 223°
2026-05-06 19:27 50.38150 -1.80603 29703 ft 278 kts 223°
2026-05-06 19:27 50.36663 -1.82527 29804 ft 277 kts 223°
2026-05-06 19:28 50.35171 -1.84457 29880 ft 278 kts 223°
2026-05-06 19:28 50.33679 -1.86384 29957 ft 278 kts 223°
2026-05-06 19:28 50.32184 -1.88314 30032 ft 279 kts 223°
2026-05-06 19:28 50.30703 -1.90225 30105 ft 279 kts 223°
2026-05-06 19:29 50.29206 -1.92153 30177 ft 279 kts 223°
2026-05-06 19:29 50.27703 -1.94089 30248 ft 280 kts 223°
2026-05-06 19:29 50.26199 -1.96024 30318 ft 280 kts 223°
2026-05-06 19:29 50.24697 -1.97955 30386 ft 280 kts 223°
2026-05-06 19:30 50.23185 -1.99897 30452 ft 280 kts 223°
2026-05-06 19:30 50.21676 -2.01839 30416 ft 285 kts 222°
2026-05-06 19:30 50.20119 -2.03844 30276 ft 291 kts 222°
2026-05-06 19:30 50.18562 -2.05840 30361 ft 289 kts 222°
2026-05-06 19:31 50.17020 -2.07813 30417 ft 290 kts 222°
2026-05-06 19:31 50.15458 -2.09810 30485 ft 290 kts 222°
2026-05-06 19:31 50.12308 -2.13830 30628 ft 290 kts 222°
2026-05-06 19:32 50.10773 -2.15786 30701 ft 289 kts 222°
2026-05-06 19:32 50.09221 -2.17761 30774 ft 287 kts 222°
2026-05-06 19:32 50.07684 -2.19714 30846 ft 283 kts 222°
2026-05-06 19:32 50.06178 -2.21624 30907 ft 277 kts 222°
2026-05-06 19:33 50.04646 -2.23570 30572 ft 286 kts 222°
2026-05-06 19:33 50.03129 -2.25494 30637 ft 278 kts 222°
2026-05-06 19:33 50.01656 -2.27358 30705 ft 267 kts 222°
2026-05-06 19:33 50.00188 -2.29217 30247 ft 285 kts 222°
2026-05-06 19:34 49.98627 -2.31200 29962 ft 290 kts 222°
2026-05-06 19:34 49.97053 -2.33193 29986 ft 293 kts 221°
2026-05-06 19:34 49.95492 -2.35169 29992 ft 297 kts 221°
2026-05-06 19:34 49.93839 -2.37164 29987 ft 302 kts 213°
2026-05-06 19:35 49.89930 -2.39937 29995 ft 314 kts 206°
2026-05-06 19:35 49.85865 -2.42711 29995 ft 325 kts 206°
2026-05-06 19:36 49.81646 -2.45642 29999 ft 339 kts 207°
2026-05-06 19:36 49.77290 -2.48680 30066 ft 352 kts 206°
2026-05-06 19:37 49.72711 -2.51868 30128 ft 368 kts 206°
2026-05-06 19:37 49.68773 -2.54600 30254 ft 378 kts 206°
2026-05-06 19:38 49.65523 -2.56853 30356 ft 387 kts 206°
2026-05-06 19:38 49.63048 -2.58568 30432 ft 393 kts 206°
2026-05-06 19:38 49.57977 -2.62075 30583 ft 405 kts 206°
2026-05-06 19:39 49.52762 -2.65676 30734 ft 416 kts 206°
2026-05-06 19:39 49.47448 -2.69336 30884 ft 426 kts 206°
2026-05-06 19:40 49.41976 -2.73098 31119 ft 434 kts 206°
2026-05-06 19:40 49.39212 -2.74994 31308 ft 436 kts 206°
2026-05-06 19:40 49.36435 -2.76896 31527 ft 437 kts 206°
2026-05-06 19:41 49.33656 -2.78797 31764 ft 438 kts 206°
2026-05-06 19:41 49.30864 -2.80705 32013 ft 438 kts 206°
2026-05-06 19:41 49.28081 -2.82603 32265 ft 438 kts 206°
2026-05-06 19:41 49.25299 -2.84499 32518 ft 438 kts 206°
2026-05-06 19:42 49.22506 -2.86399 32770 ft 438 kts 206°
2026-05-06 19:42 49.19763 -2.88263 33015 ft 437 kts 206°
2026-05-06 19:42 49.16984 -2.90147 33257 ft 437 kts 206°
2026-05-06 19:42 49.14204 -2.92031 33495 ft 436 kts 206°
2026-05-06 19:43 49.11433 -2.93907 33728 ft 436 kts 206°
2026-05-06 19:43 49.08661 -2.95781 33955 ft 435 kts 206°
2026-05-06 19:43 49.05894 -2.97650 34175 ft 435 kts 206°
2026-05-06 19:43 49.03121 -2.99520 34383 ft 434 kts 206°
2026-05-06 19:44 49.00364 -3.01377 34580 ft 434 kts 206°
2026-05-06 19:44 48.97605 -3.03233 34855 ft 432 kts 206°
2026-05-06 19:44 48.94852 -3.05083 34957 ft 433 kts 206°
2026-05-06 19:44 48.92087 -3.06939 34984 ft 433 kts 206°
2026-05-06 19:45 48.87510 -3.10005 34992 ft 432 kts 206°
2026-05-06 19:45 48.81106 -3.14285 34993 ft 432 kts 206°
2026-05-06 19:46 48.75610 -3.17949 34993 ft 432 kts 206°
2026-05-06 19:46 48.70988 -3.21023 34993 ft 432 kts 206°
2026-05-06 19:47 48.65485 -3.24675 34993 ft 432 kts 206°
2026-05-06 19:47 48.59970 -3.28326 34993 ft 432 kts 206°
2026-05-06 19:48 48.54462 -3.31964 34993 ft 432 kts 206°
2026-05-06 19:48 48.48987 -3.35571 34993 ft 432 kts 206°
2026-05-06 19:49 48.43463 -3.39201 34993 ft 432 kts 206°
2026-05-06 19:49 48.37953 -3.42814 34993 ft 432 kts 205°
2026-05-06 19:50 48.32430 -3.46427 34993 ft 432 kts 205°
2026-05-06 19:50 48.26907 -3.50031 34993 ft 432 kts 205°
2026-05-06 19:51 48.21390 -3.53623 34993 ft 432 kts 205°
2026-05-06 19:51 48.15901 -3.57187 34993 ft 432 kts 205°
2026-05-06 19:52 48.10375 -3.60768 34993 ft 432 kts 205°
2026-05-06 19:52 48.04850 -3.64339 34993 ft 432 kts 205°
2026-05-06 19:53 47.99311 -3.67911 34993 ft 433 kts 205°
2026-05-06 19:53 47.93784 -3.71475 34992 ft 436 kts 205°
2026-05-06 19:54 47.88216 -3.75045 34993 ft 435 kts 205°
2026-05-06 19:54 47.82652 -3.78606 34993 ft 435 kts 205°
2026-05-06 19:55 47.77085 -3.82162 34993 ft 435 kts 205°
2026-05-06 19:55 47.71524 -3.85706 34993 ft 435 kts 205°
2026-05-06 19:56 47.65955 -3.89247 34993 ft 435 kts 205°
2026-05-06 19:56 47.60385 -3.92780 34993 ft 435 kts 205°
2026-05-06 19:57 47.54773 -3.96334 34994 ft 443 kts 205°
2026-05-06 19:57 47.49085 -3.99930 34994 ft 451 kts 205°
2026-05-06 19:58 47.43304 -4.03573 34993 ft 451 kts 205°
2026-05-06 19:58 47.37512 -4.07212 34993 ft 451 kts 205°
2026-05-06 19:59 47.31726 -4.10838 34992 ft 451 kts 205°
2026-05-06 19:59 47.25942 -4.14456 34991 ft 451 kts 205°
2026-05-06 20:00 47.20189 -4.18045 34990 ft 451 kts 205°
2026-05-06 20:00 47.14411 -4.21641 34993 ft 451 kts 205°
2026-05-06 20:01 47.08633 -4.25229 34994 ft 451 kts 205°
2026-05-06 20:01 47.02793 -4.28590 34994 ft 451 kts 201°
2026-05-06 20:02 46.96885 -4.31725 34994 ft 451 kts 202°
2026-05-06 20:02 46.90987 -4.34932 34994 ft 451 kts 202°
2026-05-06 20:03 46.85146 -4.38119 34994 ft 451 kts 202°
2026-05-06 20:03 46.79252 -4.41335 34994 ft 451 kts 202°
2026-05-06 20:04 46.73375 -4.44535 34995 ft 451 kts 202°
2026-05-06 20:04 46.67494 -4.47730 34998 ft 451 kts 202°
2026-05-06 20:05 46.61651 -4.50900 34999 ft 451 kts 202°
2026-05-06 20:05 46.55774 -4.54080 35000 ft 451 kts 202°
2026-05-06 20:06 46.49900 -4.57252 35001 ft 450 kts 202°
2026-05-06 20:06 46.44018 -4.60420 35001 ft 450 kts 202°
2026-05-06 20:07 46.38130 -4.63583 35002 ft 450 kts 202°
2026-05-06 20:07 46.32253 -4.66733 35003 ft 450 kts 202°
2026-05-06 20:08 46.26371 -4.69878 35003 ft 450 kts 202°
2026-05-06 20:08 46.20530 -4.72994 35004 ft 450 kts 202°
2026-05-06 20:09 46.14639 -4.76129 35005 ft 450 kts 202°
2026-05-06 20:09 46.08761 -4.79250 35005 ft 450 kts 202°
2026-05-06 20:10 46.02869 -4.82371 35006 ft 450 kts 202°
2026-05-06 20:10 45.96980 -4.85483 35007 ft 449 kts 202°
2026-05-06 20:11 45.91145 -4.88559 35008 ft 449 kts 202°
2026-05-06 20:11 45.85268 -4.91651 35008 ft 449 kts 202°
2026-05-06 20:12 45.79380 -4.94741 35009 ft 449 kts 202°
2026-05-06 20:12 45.73512 -4.97814 35010 ft 449 kts 202°
2026-05-06 20:13 45.67634 -5.00884 35010 ft 449 kts 202°
2026-05-06 20:13 45.61800 -5.03926 35011 ft 449 kts 202°
2026-05-06 20:14 45.55932 -5.06978 35013 ft 449 kts 202°
2026-05-06 20:14 45.50064 -5.10023 35015 ft 449 kts 202°
2026-05-06 20:15 45.44184 -5.13068 35015 ft 449 kts 202°
2026-05-06 20:15 45.38346 -5.16084 35016 ft 448 kts 202°
2026-05-06 20:16 45.32468 -5.19114 35016 ft 449 kts 202°
2026-05-06 20:16 45.26598 -5.22133 35017 ft 449 kts 202°
2026-05-06 20:17 45.20720 -5.25150 35017 ft 449 kts 202°
2026-05-06 20:17 45.14887 -5.28137 35017 ft 449 kts 202°
2026-05-06 20:18 45.09013 -5.31138 35018 ft 449 kts 202°
2026-05-06 20:18 45.03135 -5.34135 35018 ft 449 kts 202°
2026-05-06 20:19 44.97262 -5.37122 35018 ft 449 kts 202°
2026-05-06 20:19 44.91379 -5.40109 35019 ft 449 kts 202°
2026-05-06 20:20 44.85531 -5.43071 35019 ft 449 kts 201°
2026-05-06 20:20 44.79653 -5.46041 35019 ft 449 kts 201°
2026-05-06 20:21 44.73768 -5.49009 35020 ft 449 kts 201°
2026-05-06 20:21 44.67889 -5.51967 35020 ft 449 kts 201°
2026-05-06 20:22 44.62007 -5.54919 35020 ft 449 kts 202°
2026-05-06 20:22 44.56276 -5.58202 35020 ft 447 kts 206°
2026-05-06 20:23 44.50579 -5.61724 35020 ft 447 kts 206°
2026-05-06 20:23 44.44878 -5.65250 35021 ft 447 kts 206°
2026-05-06 20:24 44.39190 -5.68760 35006 ft 447 kts 206°
2026-05-06 20:24 44.33522 -5.72251 35005 ft 447 kts 206°
2026-05-06 20:25 44.27825 -5.75752 35006 ft 447 kts 206°
2026-05-06 20:25 44.22124 -5.79247 35008 ft 447 kts 206°
2026-05-06 20:26 44.16425 -5.82733 35009 ft 447 kts 206°
2026-05-06 20:26 44.10728 -5.86209 35010 ft 447 kts 206°
2026-05-06 20:27 44.05015 -5.89686 35011 ft 447 kts 206°
2026-05-06 20:27 43.99307 -5.93153 35013 ft 447 kts 206°
2026-05-06 20:28 43.93710 -5.96541 35015 ft 438 kts 206°
2026-05-06 20:28 43.88098 -5.99936 35016 ft 440 kts 206°
2026-05-06 20:29 43.82482 -6.03324 35020 ft 440 kts 206°
2026-05-06 20:29 43.76860 -6.06710 35022 ft 440 kts 206°
2026-05-06 20:30 43.68427 -6.11774 35022 ft 440 kts 205°
2026-05-06 20:31 43.62803 -6.15143 35022 ft 440 kts 205°
2026-05-06 20:31 43.57180 -6.18504 35022 ft 440 kts 205°
2026-05-06 20:32 43.51598 -6.21833 35022 ft 439 kts 205°
2026-05-06 20:32 43.45985 -6.25175 35020 ft 439 kts 205°
2026-05-06 20:33 43.40375 -6.28507 35018 ft 439 kts 205°
2026-05-06 20:33 43.34770 -6.31830 35016 ft 439 kts 205°
2026-05-06 20:34 43.29165 -6.35146 35013 ft 438 kts 205°
2026-05-06 20:34 43.24507 -6.37896 35009 ft 438 kts 205°
2026-05-06 20:35 43.18911 -6.41195 35005 ft 438 kts 205°
2026-05-06 20:35 43.12403 -6.45022 35001 ft 437 kts 205°
2026-05-06 20:36 43.06812 -6.48303 34997 ft 437 kts 205°
2026-05-06 20:36 43.02162 -6.51027 34993 ft 437 kts 205°
2026-05-06 20:37 42.96568 -6.54298 34990 ft 437 kts 205°
2026-05-06 20:37 42.90975 -6.57560 34987 ft 436 kts 205°
2026-05-06 20:38 42.85394 -6.60811 34982 ft 436 kts 205°
2026-05-06 20:38 42.79818 -6.64053 34976 ft 435 kts 205°
2026-05-06 20:39 42.74270 -6.67271 34974 ft 436 kts 205°
2026-05-06 20:39 42.68696 -6.70498 34972 ft 435 kts 205°
2026-05-06 20:40 42.63121 -6.73719 34971 ft 435 kts 205°
2026-05-06 20:40 42.57548 -6.76933 34970 ft 435 kts 205°
2026-05-06 20:41 42.51966 -6.80146 34955 ft 435 kts 205°
2026-05-06 20:41 42.46403 -6.83339 34953 ft 434 kts 205°
2026-05-06 20:42 42.40836 -6.86532 34953 ft 434 kts 205°
2026-05-06 20:42 42.35300 -6.89700 34954 ft 434 kts 205°
2026-05-06 20:43 42.29729 -6.92881 34955 ft 434 kts 205°
2026-05-06 20:43 42.24158 -6.96057 34955 ft 435 kts 205°
2026-05-06 20:44 42.18577 -6.99232 34951 ft 435 kts 205°
2026-05-06 20:44 42.12999 -7.02399 34950 ft 435 kts 205°
2026-05-06 20:45 42.07466 -7.05535 34945 ft 435 kts 205°
2026-05-06 20:45 42.01885 -7.08692 34943 ft 435 kts 205°
2026-05-06 20:46 41.96314 -7.11837 34943 ft 432 kts 205°
2026-05-06 20:46 41.90765 -7.14962 34943 ft 433 kts 205°
2026-05-06 20:47 41.85209 -7.18087 34943 ft 433 kts 204°
2026-05-06 20:47 41.79681 -7.21190 34943 ft 433 kts 204°
2026-05-06 20:47 41.76808 -7.22392 34942 ft 436 kts 191°
2026-05-06 20:48 41.73765 -7.22750 34946 ft 439 kts 185°
2026-05-06 20:48 41.67680 -7.23244 34947 ft 438 kts 187°
2026-05-06 20:49 41.61599 -7.23899 34948 ft 438 kts 187°
2026-05-06 20:49 41.55511 -7.24574 34947 ft 438 kts 187°
2026-05-06 20:50 41.49476 -7.25246 34947 ft 438 kts 187°
2026-05-06 20:50 41.43384 -7.25925 34946 ft 439 kts 187°
2026-05-06 20:51 41.37314 -7.26600 34946 ft 438 kts 187°
2026-05-06 20:51 41.31228 -7.27277 34945 ft 438 kts 187°
2026-05-06 20:52 41.25148 -7.27953 34945 ft 439 kts 187°
2026-05-06 20:52 41.19060 -7.28630 34940 ft 439 kts 187°
2026-05-06 20:53 41.13007 -7.29300 34937 ft 439 kts 187°
2026-05-06 20:53 41.06919 -7.29972 34937 ft 439 kts 187°
2026-05-06 20:54 41.00835 -7.30645 34936 ft 439 kts 187°
2026-05-06 20:54 40.94742 -7.31317 34934 ft 439 kts 187°
2026-05-06 20:55 40.88648 -7.31987 34929 ft 438 kts 187°
2026-05-06 20:55 40.82559 -7.32656 34929 ft 439 kts 187°
2026-05-06 20:56 40.76495 -7.33321 34929 ft 439 kts 187°
2026-05-06 20:56 40.70407 -7.33987 34929 ft 438 kts 188°
2026-05-06 20:57 40.64317 -7.34652 34928 ft 439 kts 188°
2026-05-06 20:57 40.58232 -7.35316 34928 ft 439 kts 188°
2026-05-06 20:58 40.52138 -7.35979 34927 ft 439 kts 188°
2026-05-06 20:58 40.46054 -7.36637 34927 ft 440 kts 188°
2026-05-06 20:59 40.40002 -7.37294 34926 ft 439 kts 188°
2026-05-06 20:59 40.33912 -7.37954 34926 ft 439 kts 188°
2026-05-06 21:00 40.27807 -7.38613 34925 ft 439 kts 188°
2026-05-06 21:00 40.21716 -7.39269 34924 ft 440 kts 188°
2026-05-06 21:01 40.15621 -7.39926 34923 ft 440 kts 188°
2026-05-06 21:01 40.09523 -7.40582 34922 ft 440 kts 188°
2026-05-06 21:02 40.03419 -7.41236 34920 ft 440 kts 188°
2026-05-06 21:02 39.97328 -7.41883 34917 ft 435 kts 188°
2026-05-06 21:03 39.91331 -7.42509 34917 ft 433 kts 189°
2026-05-06 21:03 39.85356 -7.43150 34915 ft 433 kts 189°
2026-05-06 21:04 39.79344 -7.43793 34910 ft 434 kts 189°
2026-05-06 21:04 39.73324 -7.44434 34904 ft 433 kts 189°
2026-05-06 21:05 39.67311 -7.45073 34902 ft 434 kts 189°
2026-05-06 21:05 39.61289 -7.45711 34899 ft 434 kts 189°
2026-05-06 21:06 39.55265 -7.46348 34896 ft 434 kts 189°
2026-05-06 21:06 39.49245 -7.46985 34893 ft 434 kts 189°
2026-05-06 21:07 39.43208 -7.47622 34890 ft 435 kts 189°
2026-05-06 21:07 39.37163 -7.48258 34887 ft 435 kts 189°
2026-05-06 21:08 39.31132 -7.48890 34884 ft 435 kts 189°
2026-05-06 21:08 39.25103 -7.49522 34882 ft 435 kts 189°
2026-05-06 21:09 39.19078 -7.50152 34879 ft 435 kts 189°
2026-05-06 21:09 39.13068 -7.50779 34877 ft 435 kts 189°
2026-05-06 21:10 39.07027 -7.51409 34875 ft 435 kts 189°
2026-05-06 21:10 39.00983 -7.52038 34874 ft 435 kts 189°
2026-05-06 21:11 38.94950 -7.52665 34874 ft 435 kts 189°
2026-05-06 21:11 38.88907 -7.53292 34873 ft 435 kts 189°
2026-05-06 21:12 38.82862 -7.53917 34873 ft 435 kts 189°
2026-05-06 21:12 38.76861 -7.54538 34874 ft 435 kts 189°
2026-05-06 21:13 38.70819 -7.55161 34876 ft 436 kts 189°
2026-05-06 21:13 38.64768 -7.55784 34878 ft 436 kts 189°
2026-05-06 21:14 38.58724 -7.56406 34878 ft 430 kts 188°
2026-05-06 21:14 38.55798 -7.56701 34879 ft 415 kts 189°
2026-05-06 21:14 38.52941 -7.56988 34884 ft 411 kts 189°
2026-05-06 21:15 38.47215 -7.57574 34531 ft 413 kts 189°
2026-05-06 21:15 38.44403 -7.57860 33957 ft 408 kts 189°
2026-05-06 21:15 38.41558 -7.58149 33353 ft 403 kts 189°
2026-05-06 21:15 38.38814 -7.58429 32741 ft 398 kts 189°
2026-05-06 21:16 38.36067 -7.58709 32137 ft 393 kts 189°
2026-05-06 21:16 38.33346 -7.58987 31518 ft 389 kts 189°
2026-05-06 21:16 38.30664 -7.59260 30899 ft 385 kts 188°
2026-05-06 21:16 38.28014 -7.59530 30306 ft 379 kts 188°
2026-05-06 21:17 38.25396 -7.59795 29720 ft 374 kts 188°
2026-05-06 21:17 38.22814 -7.60057 29101 ft 370 kts 188°
2026-05-06 21:17 38.20258 -7.60318 28482 ft 366 kts 188°
2026-05-06 21:17 38.17738 -7.60574 27887 ft 361 kts 188°
2026-05-06 21:18 38.15240 -7.60828 27269 ft 357 kts 188°
2026-05-06 21:18 38.12774 -7.61079 26708 ft 353 kts 188°
2026-05-06 21:18 38.10326 -7.61328 26137 ft 351 kts 188°
2026-05-06 21:18 38.07923 -7.61498 25630 ft 350 kts 184°
2026-05-06 21:19 38.05493 -7.61504 25117 ft 348 kts 183°
2026-05-06 21:19 38.03081 -7.61487 24615 ft 346 kts 183°
2026-05-06 21:19 38.00683 -7.61475 24103 ft 343 kts 183°
2026-05-06 21:19 37.98302 -7.61467 23591 ft 341 kts 183°
2026-05-06 21:20 37.95934 -7.61463 23080 ft 339 kts 183°
2026-05-06 21:20 37.94343 -7.61461 22754 ft 337 kts 183°
2026-05-06 21:20 37.91254 -7.61459 22080 ft 334 kts 183°
2026-05-06 21:20 37.88935 -7.61458 21561 ft 332 kts 183°
2026-05-06 21:21 37.86633 -7.61458 21085 ft 329 kts 183°
2026-05-06 21:21 37.84353 -7.61459 20575 ft 327 kts 183°
2026-05-06 21:21 37.82083 -7.61459 20105 ft 325 kts 183°
2026-05-06 21:21 37.79825 -7.61460 19613 ft 323 kts 183°
2026-05-06 21:22 37.77619 -7.61460 19157 ft 320 kts 183°
2026-05-06 21:22 37.75392 -7.61462 18689 ft 319 kts 183°
2026-05-06 21:22 37.73180 -7.61462 18234 ft 317 kts 183°
2026-05-06 21:22 37.70979 -7.61463 17777 ft 315 kts 182°
2026-05-06 21:23 37.68791 -7.61465 17311 ft 314 kts 182°
2026-05-06 21:23 37.66618 -7.61466 16874 ft 311 kts 182°
2026-05-06 21:23 37.64456 -7.61468 16421 ft 310 kts 182°
2026-05-06 21:23 37.62300 -7.61469 15984 ft 308 kts 182°
2026-05-06 21:24 37.60161 -7.61470 15528 ft 306 kts 182°
2026-05-06 21:24 37.58033 -7.61471 15099 ft 305 kts 182°
2026-05-06 21:24 37.56634 -7.61472 14856 ft 304 kts 182°
2026-05-06 21:24 37.54519 -7.61472 14453 ft 303 kts 182°
2026-05-06 21:25 37.52412 -7.61474 13910 ft 303 kts 181°
2026-05-06 21:25 37.50287 -7.61476 13221 ft 307 kts 181°
2026-05-06 21:25 37.48148 -7.61478 12578 ft 307 kts 181°
2026-05-06 21:25 37.46014 -7.61479 11954 ft 306 kts 181°
2026-05-06 21:26 37.43885 -7.61481 11320 ft 305 kts 181°
2026-05-06 21:26 37.41771 -7.61484 10712 ft 302 kts 180°
2026-05-06 21:26 37.39699 -7.61484 10298 ft 293 kts 180°
2026-05-06 21:26 37.37680 -7.61483 9777 ft 287 kts 180°
2026-05-06 21:27 37.35698 -7.61481 9222 ft 283 kts 180°
2026-05-06 21:27 37.33770 -7.61483 8651 ft 279 kts 179°
2026-05-06 21:27 37.31844 -7.61484 8039 ft 276 kts 179°
2026-05-06 21:27 37.29931 -7.61483 7396 ft 274 kts 179°
2026-05-06 21:28 37.28026 -7.61480 6738 ft 272 kts 179°
2026-05-06 21:28 37.26138 -7.61475 6083 ft 271 kts 179°
2026-05-06 21:28 37.24254 -7.61470 5434 ft 270 kts 179°
2026-05-06 21:28 37.22379 -7.61465 4784 ft 269 kts 180°
2026-05-06 21:29 37.20517 -7.61459 4229 ft 265 kts 181°
2026-05-06 21:29 37.18661 -7.61455 4046 ft 266 kts 181°
2026-05-06 21:29 37.16798 -7.61458 4002 ft 268 kts 182°
2026-05-06 21:29 37.14929 -7.61465 3992 ft 269 kts 182°
2026-05-06 21:30 37.13061 -7.61470 3991 ft 268 kts 182°
2026-05-06 21:30 37.11190 -7.61475 3998 ft 269 kts 182°
2026-05-06 21:30 37.09323 -7.61565 3991 ft 267 kts 188°
2026-05-06 21:30 37.07515 -7.62037 3984 ft 265 kts 200°
2026-05-06 21:31 37.05847 -7.62845 3984 ft 244 kts 205°
2026-05-06 21:31 37.04388 -7.63628 3983 ft 218 kts 206°
2026-05-06 21:31 37.03046 -7.64359 3987 ft 207 kts 206°
2026-05-06 21:31 37.01727 -7.65051 3981 ft 206 kts 199°
2026-05-06 21:32 37.00345 -7.65493 3980 ft 204 kts 208°
2026-05-06 21:32 36.98692 -7.68179 3993 ft 197 kts 252°
2026-05-06 21:32 36.98387 -7.69841 3991 ft 196 kts 263°
2026-05-06 21:33 36.98296 -7.71549 3781 ft 195 kts 270°
2026-05-06 21:33 36.98337 -7.73074 3557 ft 192 kts 275°
2026-05-06 21:33 36.98464 -7.74763 3305 ft 191 kts 277°
2026-05-06 21:33 36.98635 -7.76382 3068 ft 183 kts 278°
2026-05-06 21:34 36.98823 -7.77911 2826 ft 174 kts 279°
2026-05-06 21:34 36.99017 -7.79383 2606 ft 165 kts 280°
2026-05-06 21:34 36.99201 -7.80726 2389 ft 149 kts 280°
2026-05-06 21:34 36.99371 -7.81943 2187 ft 136 kts 281°
2026-05-06 21:35 36.99535 -7.83105 2011 ft 135 kts 281°
2026-05-06 21:35 36.99697 -7.84253 1844 ft 133 kts 281°
2026-05-06 21:35 36.99859 -7.85399 1672 ft 133 kts 281°
2026-05-06 21:35 37.00016 -7.86510 1503 ft 126 kts 281°
2026-05-06 21:36 37.00167 -7.87574 1336 ft 124 kts 281°
2026-05-06 21:36 37.00317 -7.88629 1181 ft 123 kts 281°
2026-05-06 21:36 37.00465 -7.89677 1017 ft 122 kts 281°
2026-05-06 21:36 37.00613 -7.90725 858 ft 122 kts 281°
2026-05-06 21:37 37.00761 -7.91769 703 ft 122 kts 281°
2026-05-06 21:37 37.00908 -7.92804 543 ft 122 kts 280°
2026-05-06 21:37 37.01054 -7.93843 387 ft 121 kts 280°
2026-05-06 21:37 37.01200 -7.94879 243 ft 121 kts 280°
2026-05-06 21:38 37.01350 -7.95914 81 ft 121 kts 280°
2026-05-06 21:38 37.01480 -7.96870 39 ft 90 kts 280°
2026-05-06 21:38 37.01559 -7.97421 39 ft 42 kts 280°
2026-05-06 21:38 37.01603 -7.97726 39 ft 27 kts 280°
2026-05-06 21:39 37.01662 -7.97861 39 ft 13 kts 359°
2026-05-06 21:39 37.01731 -7.97799 39 ft 11 kts 63°
2026-05-06 21:39 37.01763 -7.97710 39 ft 11 kts 66°
2026-05-06 21:39 37.01775 -7.97617 39 ft 11 kts 94°
2026-05-06 21:40 37.01762 -7.97525 39 ft 12 kts 101°
2026-05-06 21:40 37.01741 -7.97389 39 ft 24 kts 101°
2026-05-06 21:40 37.01702 -7.97133 39 ft 33 kts 100°
2026-05-06 21:40 37.01663 -7.96855 39 ft 32 kts 100°
2026-05-06 21:41 37.01637 -7.96659 39 ft 18 kts 96°
2026-05-06 21:41 37.01651 -7.96547 39 ft 12 kts 30°
2026-05-06 21:41 37.01735 -7.96526 39 ft 12 kts
2026-05-06 21:41 37.01791 -7.96580 39 ft 12 kts 282°
2026-05-06 21:42 37.01807 -7.96681 39 ft 12 kts 280°
2026-05-06 21:42 37.01827 -7.96719 39 ft 5 kts
2026-05-06 21:42 37.01862 -7.96707 39 ft 5 kts 15°
2026-05-06 21:42 37.01894 -7.96698 39 ft 5 kts
2026-05-06 21:43 37.01903 -7.96696 39 ft 0 kts